Retour au catalogue

STARLINK-31570

ActifCommunicationsVLEO
NORAD 59324·PAYLOAD·🇺🇸 United States

Lancé Mar 25, 2024 depuis Cape Canaveral Space Force Station

Loading…

Prochains Passages (prochaines 24 heures)

TLE

FraisSource: CelesTrak SupGP

Époque: Sep 15, 2026, 03:32 UTC

1 59324C 24057E   26258.14770833  .00024199  00000+0  87664-3 0  2583
2 59324  43.0004 197.5101 0001241 273.6485 303.3952 15.27561027    15

Suivez STARLINK-31570 en temps réel avec AllMySat

Download on the App Store